Regional Weather Roundup
Issued by NWS

Home | Current Version | Previous Version | Graphics & Text | Print | Product List | Glossary On
Versions: 1 2 3 4 5 6 7 8 9 10 11 12 13 14 15 16 17 18 19 20 21 22 23 24 25 26 27 28 29 30 31 32 33 34 35 36 37 38 39 40 41 42 43 44 45 46 47 48 49 50
000
ASUS43 KLOT 211406
RWRIL

ILLINOIS REGIONAL WEATHER ROUNDUP
NATIONAL WEATHER SERVICE CHICAGO/ROMEOVILLE IL
900 AM CDT TUE OCT 21 2014

NOTE: "FAIR" INDICATES FEW OR NO CLOUDS BELOW 12,000 FEET WITH NO
SIGNIFICANT WEATHER AND/OR OBSTRUCTIONS TO VISIBILITY.

* THESE STATIONS ARE NOT UNDER NWS QUALITY CONTROL. THEY ALSO MAY NOT
  REPORT WEATHER SUCH AS PRECIPITATION OR FOG.

ILZ001-002-007-009-015-016-024-211500-
NORTHWEST ILLINOIS

CITY           SKY/WX    TMP DP  RH WIND       PRES   REMARKS
MOLINE         SUNNY     47  42  83 CALM      30.18R
STERLING*      SUNNY     48  39  71 NE7       30.18R
SAVANNA*       SUNNY     44  43  94 NE7       30.18R
$$

ILZ003-004-008-010-011-017-018-211500-
NORTH CENTRAL ILLINOIS

CITY           SKY/WX    TMP DP  RH WIND       PRES   REMARKS
ROCKFORD       MOSUNNY   48  37  65 N15       30.19R
FREEPORT*      SUNNY     45  40  83 N9        30.19R
ROCHELLE*      PTSUNNY   47  40  76 N9        30.17R
DE KALB*       SUNNY     46  38  72 N10       30.16S
PERU*          SUNNY     47  43  85 N9        30.17R
$$

ILZ005-006-012>014-019>023-211500-
NORTHEAST ILLINOIS

CITY           SKY/WX    TMP DP  RH WIND       PRES   REMARKS
CHICAGO-OHARE  PTSUNNY   47  39  74 N13       30.14R
CHICAGO-MIDWAY MOSUNNY   51  39  63 N13       30.13R
AURORA         PTSUNNY   48  39  71 N8        30.15R
LANSING*       CLOUDY    48  42  78 NW9       30.13R
JOLIET*        SUNNY     49  38  66 N10G16    30.14S
WAUKEGAN       CLOUDY    45  39  79 N12       30.14R
DUPAGE AIRPORT SUNNY     49  39  68 N12       30.14R
KANKAKEE*      MOSUNNY   51  41  70 N13       30.13R
WHEELING       CLOUDY    48  39  71 N8        30.15R
MORRIS*        SUNNY     49  43  78 N6        30.14R
ROMEOVILLE*    SUNNY     49  37  64 N8        30.14R
NORTHERLY ISL    N/A     50  41  71 N17         N/A
$$

LMZ740>746-211500-
SOUTHERN LAKE MICHIGAN

STATION/POSITION SKY/WX   TEMP    WIND        PRES    VSBY  WAVE
                          AIR SEA DIR/SP/G                  HT/PER
                          (F)     (DEG/KT/KT) (MB)    (MI)  (FT/S)
SOUTHERN BUOY              50 54  340/ 21/ 25 1019.5R         6/ 7
WAUKEGAN HARBOR            46     340/ 11/ 16   N/A
HARRISON CRIB              49     340/ 23/ 26   N/A
BURNHAM HARBOR             50     340/ 17/ 18   N/A
CALUMET HARBOR             50     330/ 12/ 18 1018.8R
MICHIGAN CITY              51     330/ 23/ 26   N/A
$$

ILZ025>027-034>036-040-047-049-050-058-095>099-211500-
WEST-CENTRAL ILLINOIS

CITY           SKY/WX    TMP DP  RH WIND       PRES   REMARKS
QUINCY         SUNNY     49  43  80 NE9       30.15R
GALESBURG*     SUNNY     45  42  89 CALM      30.17R
MACOMB*        SUNNY     47  44  87 NE6       30.18S
JACKSONVILLE*  SUNNY     51  45  79 NE8       30.15R
PITTSFIELD*    SUNNY     51  44  78 NE3       30.16R
$$

ILZ028>032-037-038-041>044-048-051>054-059>061-211500-
CENTRAL ILLINOIS

CITY           SKY/WX    TMP DP  RH WIND       PRES   REMARKS
BLOOMINGTON    SUNNY     48  44  86 N10       30.15R
DECATUR        SUNNY     50  45  83 N9        30.14R
PEORIA         SUNNY     49  41  74 N5        30.16R
LACON*         SUNNY     46  41  85 N3        30.16R
LINCOLN*       SUNNY     49  44  82 N6        30.14R
SPRINGFIELD    SUNNY     50  43  77 N6        30.15R
TAYLORVILLE    SUNNY     46  45  93 N7        30.13R
$$

ILZ033-039-045-046-055>057-062-063-211500-
EAST-CENTRAL ILLINOIS

CITY           SKY/WX    TMP DP  RH WIND       PRES   REMARKS
CHAMPAIGN      SUNNY     51  45  79 N9        30.12R
DANVILLE*      PTSUNNY   50  45  82 N12       30.09R
RANTOUL*       SUNNY     52  44  73 N10       30.13R
MATTOON        MOSUNNY   48  46  93 N7        30.11R
PARIS*         PTSUNNY   50  48  93 N5        30.11R
$$

ILZ079-100>102-211500-
SOUTHWEST ILLINOIS

CITY           SKY/WX    TMP DP  RH WIND       PRES   REMARKS
BELLEVILLE     SUNNY     53  48  82 N8        30.10R
CAHOKIA*       SUNNY     53  48  83 CALM      30.12R
SPARTA*        SUNNY     52  46  80 NW3       30.11R
$$

ILZ064>066-069>071-074>076-080>082-084>086-088>090-092>094-211500-
SOUTH-CENTRAL ILLINOIS

CITY           SKY/WX    TMP DP  RH WIND       PRES   REMARKS
CARBONDALE     SUNNY     53  47  79 NW5       30.10R
CAIRO*         SUNNY     55  53  94 CALM      30.09R
EFFINGHAM*     SUNNY     51  47  86 N3        30.12R
MARION         SUNNY     54  46  76 NW7       30.10R
MT. VERNON     SUNNY     50  45  81 NE3       30.10R
CENTRALIA*     SUNNY     51  46  81 CALM      30.10R
SALEM*         SUNNY     53  49  87 NE5       30.11R
METROPOLIS*    SUNNY     54  51  90 NW3       30.08S
$$

ILZ067-068-072-073-078-083-087-091-211500-
SOUTHEAST ILLINOIS

CITY           SKY/WX    TMP DP  RH WIND       PRES   REMARKS
LAWRENCEVILLE  CLOUDY    50  48  93 NW3       30.11R FOG
FLORA*         SUNNY     50  47  90 N5        30.11R
FAIRFIELD*     SUNNY     51  47  86 NE5       30.09R
HARRISBURG*    SUNNY     51  49  93 CALM      30.09S
ROBINSON*      CLOUDY    50  49  97 CALM      30.11R
CARMI*         SUNNY     53  50  87 N5        30.08S
$$

ABBREVIATIONS USED IN REMARKS
   TC - TEMPERATURE IN CELSIUS
  WCI - WIND CHILL INDEX
   HX - HEAT INDEX
  VSB - VISIBILITY
$$




USA.gov is the U.S. government's official web portal to all federal, state and local government web resources and services.